Location: Killam
(52.7910°N, 111.8608°W)
Time: 16:17:41
(UTC+00:00)

Vanguard 2 Rocket - Pass Details

Date: 25 February 2026
Orbit: 553 x 3286 km, 32.9° (Epoch: 11 March)

Event Time Altitude Azimuth Distance (km) Brightness Sun altitude
Rises 00:21:20 0° 270° (W) 6,768 12.9 4.3°
Reaches altitude 10° 00:30:25 10° 246° (WSW) 5,100 13.3 3.0°
Maximum altitude 00:34:40 12° 228° (SW) 4,558 11.9 2.4°
Drops below altitude 10° 00:38:24 10° 210° (SSW) 4,340 11.2 1.9°
Sets 00:44:24 0° 181° (S) 4,662 10.8 1.0°
